Orbital Elements at Epoch 2459200.5 (2020-Dec-17.0) TDB
Reference: JPL 24 (heliocentric ecliptic J2000)
Element | Value | Uncertainty (1-sigma) | Units |
e | .2656268828747292 | 4.1028e-08 | |
a | 2.408973846114436 | 1.0545e-08 | au |
q | 1.769085632444311 | 1.0147e-07 | au |
i | 8.761190981051714 | 4.1174e-06 | deg |
node | 26.96233161828771 | 2.985e-05 | deg |
peri | 305.5025115862273 | 3.0785e-05 | deg |
M | 206.7042319540974 | 1.0199e-05 | deg |
tp | 2459782.032805479077 (2022-Jul-21.53280548) | 4.1027e-05 | TDB |
period | 1365.672468595349 3.74 | 8.9675e-06 2.455e-08 | d yr |
n | .2636063977845837 | 1.7309e-09 | deg/d |
Q | 3.048862059784561 | 1.3347e-08 | au |
|
| | Orbit Determination Parameters
Additional Information
|